Time,TemperatureF,DewpointF,PressureIn,WindDirection,WindDirectionDegrees,WindSpeedMPH,WindSpeedGustMPH,Humidity,HourlyPrecipIn,Conditions,Clouds,dailyrainin,SoftwareType,DateUTC
2013-05-09 00:00:00,39.0,-99.9,-100.00,NNW,338,114.0,-999.0,-999,-99.99,,,0.00,,2013-05-09 06:00:00,
2013-05-09 00:42:00,39.0,-99.9,-100.00,NNW,338,114.0,-999.0,-999,-99.99,,,0.00,,2013-05-09 06:42:00,
2013-05-09 00:52:00,39.0,-99.9,-100.00,NNW,338,114.0,-999.0,-999,-99.99,,,0.00,,2013-05-09 06:52:00,
2013-05-09 01:00:00,40.0,-99.9,-100.00,North,-999,-999.0,-999.0,-999,-99.99,,,0.00,,2013-05-09 07:00:00,
2013-05-09 01:52:00,40.0,-99.9,-100.00,North,-999,-999.0,-999.0,-999,-99.99,,,0.00,,2013-05-09 07:52:00,
2013-05-09 02:00:00,38.0,-99.9,-100.00,NW,322,110.0,-999.0,-999,-99.99,,,0.00,,2013-05-09 08:00:00,
2013-05-09 03:00:00,38.0,-99.9,-100.00,NW,326,110.0,-999.0,-999,-99.99,,,-99.99,,2013-05-09 09:00:00,
2013-05-09 04:00:00,37.0,-99.9,-100.00,NW,326,110.0,-999.0,-999,-99.99,,,0.00,,2013-05-09 10:00:00,
2013-05-09 04:53:00,37.0,-99.9,-100.00,NW,326,110.0,-999.0,-999,-99.99,,,0.00,,2013-05-09 10:53:00,
2013-05-09 05:00:00,36.0,-99.9,-100.00,NW,321,108.0,-999.0,-999,-99.99,,,0.00,,2013-05-09 11:00:00,
2013-05-09 05:52:00,36.0,-99.9,-100.00,NW,321,108.0,-999.0,-999,-99.99,,,0.00,,2013-05-09 11:52:00,
2013-05-09 06:00:00,35.0,-99.9,-100.00,NW,324,111.0,-999.0,-999,-99.99,,,0.00,,2013-05-09 12:00:00,
2013-05-09 06:52:00,-999.0,-99.9,-100.00,NW,324,111.0,-999.0,-999,-99.99,,,-99.99,,2013-05-09 12:52:00,
2013-05-09 07:00:00,37.0,-99.9,-100.00,NNW,337,113.0,-999.0,-999,-99.99,,,0.00,,2013-05-09 13:00:00,
2013-05-09 07:52:00,37.0,-99.9,-100.00,North,-999,-999.0,-999.0,-999,-99.99,,,0.00,,2013-05-09 13:52:00,
2013-05-09 08:00:00,41.0,-99.9,-100.00,NW,316,113.0,-999.0,-999,-99.99,,,0.00,,2013-05-09 14:00:00,
2013-05-09 09:00:00,42.0,-99.9,-100.00,WNW,292,100.0,-999.0,-999,-99.99,,,0.00,,2013-05-09 15:00:00,
2013-05-09 10:00:00,47.0,-99.9,-100.00,West,262,97.0,-999.0,-999,-99.99,,,-99.99,,2013-05-09 16:00:00,
2013-05-09 11:00:00,44.0,-99.9,-100.00,SW,229,81.0,-999.0,-999,-99.99,,,0.00,,2013-05-09 17:00:00,
2013-05-09 12:00:00,48.0,-99.9,-100.00,SW,216,81.0,-999.0,-999,-99.99,,,0.00,,2013-05-09 18:00:00,
2013-05-09 13:00:00,47.0,-99.9,-100.00,SW,222,84.0,-999.0,-999,-99.99,,,0.00,,2013-05-09 19:00:00,
2013-05-09 14:00:00,50.0,-99.9,-100.00,SSW,201,75.0,-999.0,-999,-99.99,,,0.00,,2013-05-09 20:00:00,
2013-05-09 14:42:00,50.0,-99.9,-100.00,SSW,201,75.0,-999.0,-999,-99.99,,,0.00,,2013-05-09 20:42:00,
2013-05-09 14:52:00,50.0,-99.9,-100.00,SSW,201,75.0,-999.0,-999,-99.99,,,0.00,,2013-05-09 20:52:00,
2013-05-09 15:00:00,49.0,-99.9,-100.00,SSW,192,72.0,-999.0,-999,-99.99,,,0.00,,2013-05-09 21:00:00,
2013-05-09 16:00:00,48.0,-99.9,-100.00,South,189,69.0,-999.0,-999,-99.99,,,0.00,,2013-05-09 22:00:00,
2013-05-09 17:00:00,45.0,-99.9,-100.00,SW,227,86.0,-999.0,-999,-99.99,,,0.00,,2013-05-09 23:00:00,
2013-05-09 18:00:00,46.0,-99.9,-100.00,WSW,239,85.0,-999.0,-999,-99.99,,,0.00,,2013-05-10 00:00:00,
2013-05-09 19:00:00,44.0,-99.9,-100.00,SSW,212,81.0,-999.0,-999,-99.99,,,0.00,,2013-05-10 01:00:00,
2013-05-09 20:00:00,41.0,-99.9,-100.00,West,275,99.0,-999.0,-999,-99.99,,,0.00,,2013-05-10 02:00:00,
2013-05-09 21:00:00,39.0,-99.9,-100.00,WNW,295,101.0,-999.0,-999,-99.99,,,0.00,,2013-05-10 03:00:00,
2013-05-09 22:00:00,39.0,-99.9,-100.00,NW,311,107.0,-999.0,-999,-99.99,,,0.00,,2013-05-10 04:00:00,
2013-05-09 23:00:00,35.0,-99.9,-100.00,NNW,328,113.0,-999.0,-999,-99.99,,,0.00,,2013-05-10 05:00:00,